[[[{"header":{"parameterUnit":"kt","parameterCategory":2,"dx":1,"dy":1,"la1":30.253999710083008,"la2":30.299108505249023,"lo1":-89.0895004272461,"lo2":-89.04439544677734,"nx":28,"ny":28,"refTime":"2022-10-30T21:00:00:Z","depth":"0","parameterNumber":2,"parameterNumberName":"U-component_of_CURRENTS"},"data":[0.806,0.8182,0.8303,0.8303,0.8368,0.8123,0.8032,0.787,0.7849,0.7468,0.7193,0.7197,0.7189,0.6799,0.6271,0.611,0.5787,0.5407,0.5761,0.6504,0.6641,0.6771,0.6487,0.5475,0.5474,0.4121,0.411,0.4103,0.812,0.8293,0.8531,0.869,0.8716,0.8898,0.8988,0.879,0.87,0.89,0.8914,0.8577,0.8272,0.8169,0.7664,0.7363,0.7074,0.7159,0.6594,0.6552,0.7712,0.7427,0.6599,0.6599,0.6599,0.66,0.66,0.66,0.8262,0.838,0.8637,0.8811,0.9002,0.9115,0.906,0.9297,0.938,0.9376,0.9783,0.9722,0.9622,0.9674,0.9672,0.9032,0.9279,0.8613,0.8666,0.8488,0.8051,0.9335,0.8998,0.9007,0.9015,0.9022,0.9028,0,0.834,0.845,0.8663,0.8908,0.9072,0.9254,0.9473,0.9523,0.9831,0.9944,1.0153,1.0313,1.0551,1.0322,1.0508,1.0509,1.0004,1.0371,1.0203,0.8861,0.8466,0.8269,0.9766,0.9495,0.9507,0.9516,0.9522,0.9527,0.841,0.8505,0.8872,0.8995,0.9157,0.9337,0.9488,0.975,0.9893,1.0215,1.0309,1.0567,1.0774,1.106,1.1056,1.1205,1.1029,1.0654,1.037,1.0108,1.0099,0.9861,0.9686,0.9657,0.9641,0.9627,0.9616,0,0.8466,0.869,0.8909,0.9259,0.934,0.9445,0.9742,0.9863,1.0057,1.0262,1.0324,1.0631,1.0844,1.111,1.1366,1.1344,1.1133,1.1521,1.0857,1.0766,1.0243,1.0233,0.9719,0.9483,1.1299,1.1295,1.1291,0,0.8681,0.8792,0.9166,0.9284,0.9409,0.9699,0.9812,1.0013,1.0236,1.0394,1.0601,1.0726,1.0932,1.1138,1.1295,1.1378,1.1491,1.1353,1.1348,1.0759,1.0695,1.0405,1.0362,1.154,1.1539,1.1538,1.1536,0,0.8763,0.9147,0.9273,0.9404,0.9824,0.9851,1.0028,1.0276,1.0383,1.0606,1.0684,1.084,1.093,1.1049,1.1289,1.1233,1.1498,1.1415,1.1349,1.134,1.0721,1.0651,1.038,1.1535,1.1534,1.1534,1.1533,0,0.9014,0.9245,0.9473,0.9774,0.985,1.002,1.0179,1.0368,1.0599,1.0676,1.0772,1.0885,1.1018,1.1057,1.1219,1.1172,1.1283,1.1365,1.1371,1.1124,1.1097,1.0523,1.0535,1.027,1.145,1.1449,1.1448,0,0.8967,0.9318,0.9526,0.9792,0.9971,1.0166,1.0326,1.052,1.0651,1.0778,1.0859,1.0972,1.1022,1.1055,1.113,1.1224,1.1306,1.1244,1.1275,1.1277,1.1017,1.1169,1.0483,1.0548,1.143,1.1432,1.1433,0,0.8934,0.9421,0.9442,0.9564,0.9937,1.011,1.0309,1.0484,1.0538,1.0746,1.076,1.0975,1.0977,1.1022,1.1082,1.1143,1.1283,1.1145,1.1143,1.1136,1.1369,1.1173,1.1166,1.1256,1.1257,1.1258,1.142,0,0.9123,0.9277,0.941,0.97,0.9885,1.0079,1.032,1.0451,1.05,1.0594,1.0707,1.0836,1.0884,1.0979,1.1013,1.1117,1.1114,1.1072,1.0924,1.1085,1.1149,1.1161,1.0986,1.0983,1.0981,1.0979,0,0,0.8911,0.9114,0.9314,0.9534,0.9647,0.9865,1.0014,1.0185,1.0419,1.0411,1.0433,1.0607,1.0678,1.0778,1.0884,1.0955,1.0965,1.0857,1.1047,1.1055,1.1062,1.1127,1.1141,1.0975,1.0975,1.0974,1.0973,0,0.8961,0.9076,0.9215,0.9417,0.9703,0.9833,0.9898,1.0138,1.0178,1.0374,1.034,1.0433,1.0601,1.0634,1.0668,1.0914,1.0817,1.0967,1.1005,1.1029,1.104,1.1049,1.1116,1.113,1.0968,1.0968,1.0968,0,0.8866,0.9025,0.9084,0.9375,0.9537,0.9745,0.9718,0.9947,1.0059,1.0016,1.0155,1.021,1.0268,1.0437,1.0504,1.044,1.0673,1.0628,1.0644,1.0583,1.0598,1.0614,1.0629,1.0415,1.0413,1.0411,0,0,0.8877,0.9004,0.9243,0.939,0.9503,0.9666,0.9779,0.985,0.9984,1.0021,1.0053,1.0106,1.0195,1.0237,1.0334,1.0494,1.0457,1.0557,1.0584,1.0605,1.0557,1.0577,1.0596,1.0402,1.0402,1.0402,0,0,0.888,0.9107,0.9126,0.9293,0.9513,0.9733,0.9847,0.9869,0.9977,0.9946,0.9921,0.9932,1.0085,1.0101,0.9995,1.0258,1.0158,1.0182,1.0217,1.025,1.0275,1.0183,0.9859,0,0,0,0,0,0.8987,0.9091,0.9107,0.9158,0.944,0.9732,0.9774,0.9844,0.9758,0.9862,0.9886,0.9797,1.006,0.9966,0.9986,1.0054,1.0295,1.0314,1.0332,1.0418,1.0452,1.0482,0,0,0,0,0,0,0.9009,0.9068,0.9107,0.9321,0.9389,0.9723,0.9615,0.9638,0.975,0.9743,0.9801,0.98,0.9792,0.995,0.997,1.0035,0.9852,1.0302,1.0318,1.0333,1.0429,1.0458,1.0482,0,0,0,0,0,0.9027,0.9075,0.9489,0.9321,0.9379,0.9527,0.9607,0.9626,0.9694,0.9756,0.9758,0.9742,0.9796,0.9809,0.9961,1.0027,0.9838,0.9845,1.0313,1.0325,1.0337,1.0443,0,0,0,0,0,0,0.9041,0.9082,0.9504,0.9528,0.9256,0.951,0.9544,0.9614,0.9696,0.9709,0.9693,0.9686,0.98,0.981,0.9821,1.0027,0.9826,0.9834,0.9839,1.0322,1.0332,1.0341,0,0,0,0,0,0,0.9059,0.91,0.9515,0.9428,0.9441,0.9495,0.9525,0.9624,0.969,0.9622,0.9625,0.9688,0.9739,0.9811,0.9819,0.9977,0.9818,0.9825,0.983,0.9833,1.0331,1.0338,0,0,0,0,0,0,0.9079,0.9114,0.9421,0.9431,0.9442,0.9702,0.9577,0.982,0.9738,0.9612,0.9722,0.9714,0.9738,0.9749,0.9819,0.9974,0.9976,0.9818,0.9823,0.9826,0.9829,0,0,0,0,0,0,0,0.9095,0.8823,0.9381,0.9434,0.9443,0.9751,0.9756,0.976,0.9736,0.973,0.9724,0.9718,0.9776,0.9784,0.9792,0.9971,0,0,0.9817,0.9821,0,0,0,0,0,0,0,0,0.8811,0.882,0.9382,0.9388,0.9394,0.9752,0.9755,0.9759,0.9735,0.973,0.9725,0.972,0.9778,0.9784,0.9791,0,0,0,0,0,0,0,0,0,0,0,0,0,0,0,0.9382,0.9387,0,0.9752,0.9755,0.9758,0.9735,0.973,0.9726,0.9722,0.978,0.9785,0.9791,0,0,0,0,0,0,0,0,0,0,0,0,0,0,0,0,0,0,0,0,0,0,0,0,0,0,0,0,0,0,0,0,0,0,0,0,0,0,0,0,0,0,0,0,0,0,0,0,0,0,0,0,0,0,0,0,0,0,0,0,0,0,0,0,0,0,0,0,0]}],[{"header":{"parameterUnit":"kt","parameterCategory":2,"dx":1,"dy":1,"la1":30.253999710083008,"la2":30.299108505249023,"lo1":-89.0895004272461,"lo2":-89.04439544677734,"nx":28,"ny":28,"refTime":"2022-10-30T21:00:00:Z","depth":"0","parameterNumber":3,"parameterNumberName":"V-component_of_CURRENTS"},"data":[0.0858,0.0981,0.1002,0.1358,0.1506,0.1827,0.2025,0.2416,0.2803,0.349,0.3915,0.4143,0.3594,0.149,0.0067,-0.0263,-0.0807,-0.0796,-0.1081,-0.089,-0.0889,-0.0888,-0.1001,-0.092,-0.0921,-0.161,-0.1617,-0.1623,0.0748,0.0781,0.087,0.1039,0.1251,0.1237,0.1517,0.176,0.2261,0.272,0.3108,0.3295,0.2776,0.2053,0.097,0.035,0.0004,-0.004,-0.0415,-0.0507,0.0068,0.0007,0.0304,0.0304,0.0305,0.0305,0.0305,0.0306,0.0554,0.0599,0.0643,0.0759,0.0874,0.1066,0.1241,0.1437,0.1748,0.2151,0.2223,0.2664,0.2234,0.1845,0.1434,0.0629,0.0516,0.0243,0.0026,-0.0116,-0.0269,0.0456,0.0788,0.0787,0.0786,0.0785,0.0785,0,0.04,0.0397,0.0426,0.0528,0.0615,0.0707,0.0823,0.0965,0.1015,0.1233,0.157,0.1739,0.1673,0.1512,0.1205,0.0955,-0.0001,0.0333,-0.0034,-0.0447,-0.0551,-0.0673,-0.0168,0.0124,0.0118,0.0115,0.0112,0.011,0.024,0.0269,0.0264,0.031,0.0304,0.0368,0.0443,0.0409,0.0514,0.0671,0.0805,0.0895,0.105,0.093,0.0554,0.035,-0.0063,0.022,-0.0102,-0.036,-0.0591,-0.0766,-0.087,0.0057,0.0063,0.0069,0.0073,0,0.016,0.0098,0.0124,0.0077,0.0086,0.0141,0.0169,0.0241,0.0211,0.0365,0.0382,0.0297,0.0326,0.0063,-0.009,-0.0328,-0.0505,-0.0353,-0.0217,-0.0198,-0.0451,-0.0659,-0.0638,-0.0736,-0.0176,-0.0169,-0.0164,0,-0.0002,0.0016,-0.0063,-0.0061,0.0013,-0.0116,-0.0028,-0.0091,-0.0101,0.0006,-0.0224,-0.011,-0.0487,-0.0484,-0.0695,-0.067,-0.0731,-0.0813,-0.0803,-0.0782,-0.0761,-0.1061,-0.1278,-0.1062,-0.1064,-0.1066,-0.1068,0,-0.0098,-0.0186,-0.0153,-0.0199,-0.0313,-0.0289,-0.033,-0.0412,-0.0392,-0.0454,-0.0408,-0.0583,-0.0571,-0.074,-0.0863,-0.1008,-0.0874,-0.1098,-0.0912,-0.0894,-0.0855,-0.0836,-0.0929,-0.1071,-0.1072,-0.1073,-0.1074,0,-0.0267,-0.0301,-0.0303,-0.0373,-0.0403,-0.0435,-0.0474,-0.0528,-0.0621,-0.0671,-0.0754,-0.0864,-0.0929,-0.1082,-0.1161,-0.1214,-0.1238,-0.1289,-0.1281,-0.1157,-0.1215,-0.0892,-0.0682,-0.1004,-0.1174,-0.1176,-0.1178,0,-0.0309,-0.036,-0.0466,-0.051,-0.0559,-0.0718,-0.0741,-0.0849,-0.0934,-0.096,-0.1098,-0.1121,-0.1301,-0.1296,-0.1363,-0.1436,-0.1388,-0.1489,-0.1441,-0.1436,-0.1247,-0.1078,-0.1012,-0.0731,-0.1206,-0.1203,-0.1201,0,-0.0368,-0.0538,-0.0548,-0.057,-0.0772,-0.0861,-0.0918,-0.1024,-0.1001,-0.1183,-0.1141,-0.1306,-0.1373,-0.1424,-0.1509,-0.1531,-0.1426,-0.1596,-0.16,-0.1436,-0.1329,-0.1138,-0.1099,-0.1521,-0.152,-0.1519,-0.1223,0,-0.0485,-0.0545,-0.0592,-0.0706,-0.0814,-0.0916,-0.1073,-0.1152,-0.1216,-0.1294,-0.136,-0.1505,-0.1574,-0.1614,-0.1681,-0.166,-0.1631,-0.1737,-0.1768,-0.1712,-0.1586,-0.1568,-0.1825,-0.1828,-0.1831,-0.1833,0,0,-0.048,-0.0554,-0.0712,-0.0785,-0.0856,-0.1054,-0.1099,-0.1206,-0.1391,-0.1399,-0.1459,-0.1601,-0.1708,-0.1729,-0.1725,-0.1802,-0.1766,-0.1792,-0.1754,-0.1745,-0.1737,-0.1614,-0.1594,-0.1837,-0.1838,-0.1839,-0.1839,0,-0.0523,-0.0634,-0.066,-0.0792,-0.0974,-0.108,-0.1113,-0.1302,-0.1349,-0.1457,-0.1502,-0.1576,-0.1736,-0.178,-0.1822,-0.183,-0.1842,-0.1857,-0.1764,-0.1774,-0.1762,-0.1751,-0.1627,-0.1607,-0.1845,-0.1845,-0.1845,0,-0.0544,-0.0643,-0.0674,-0.0875,-0.0994,-0.1091,-0.1175,-0.1316,-0.1353,-0.1478,-0.1538,-0.1629,-0.1737,-0.1813,-0.1859,-0.188,-0.1891,-0.1951,-0.1942,-0.1932,-0.1946,-0.1932,-0.192,-0.2071,-0.2071,-0.2071,0,0,-0.0562,-0.0616,-0.0814,-0.0895,-0.0973,-0.1127,-0.1211,-0.1291,-0.1416,-0.1462,-0.1557,-0.1642,-0.1718,-0.1775,-0.188,-0.1966,-0.1963,-0.1971,-0.196,-0.1951,-0.1936,-0.1948,-0.1935,-0.2071,-0.2071,-0.2071,0,0,-0.058,-0.0742,-0.0779,-0.0882,-0.1045,-0.1237,-0.1304,-0.136,-0.147,-0.1453,-0.1559,-0.1594,-0.1684,-0.1771,-0.1756,-0.1866,-0.192,-0.1927,-0.1787,-0.1776,-0.1766,-0.1716,-0.1816,0,0,0,0,0,-0.067,-0.072,-0.0751,-0.0789,-0.1016,-0.1216,-0.1252,-0.1361,-0.1338,-0.1406,-0.1474,-0.1527,-0.1773,-0.1763,-0.1801,-0.1782,-0.207,-0.207,-0.207,-0.1914,-0.19,-0.1889,0,0,0,0,0,0,-0.0686,-0.0729,-0.0751,-0.0934,-0.0989,-0.1212,-0.1212,-0.1244,-0.1335,-0.1343,-0.1506,-0.1532,-0.1614,-0.1751,-0.1783,-0.1762,-0.1806,-0.207,-0.207,-0.207,-0.1909,-0.1898,-0.1889,0,0,0,0,0,-0.0699,-0.0735,-0.1059,-0.0936,-0.0983,-0.115,-0.1209,-0.1236,-0.1304,-0.1462,-0.1489,-0.1382,-0.1612,-0.1646,-0.1771,-0.1744,-0.1784,-0.1796,-0.207,-0.207,-0.207,-0.1904,0,0,0,0,0,0,-0.071,-0.076,-0.1072,-0.1092,-0.0915,-0.1142,-0.1176,-0.1229,-0.1419,-0.1448,-0.1342,-0.1346,-0.1612,-0.1639,-0.1664,-0.1729,-0.1766,-0.1778,-0.1786,-0.207,-0.207,-0.207,0,0,0,0,0,0,-0.0743,-0.0775,-0.1082,-0.1049,-0.1067,-0.1134,-0.1164,-0.129,-0.1419,-0.1287,-0.1297,-0.1341,-0.1572,-0.1633,-0.1654,-0.1847,-0.1753,-0.1764,-0.1772,-0.1777,-0.207,-0.207,0,0,0,0,0,0,-0.076,-0.0788,-0.1044,-0.1058,-0.1073,-0.1307,-0.1248,-0.1468,-0.1405,-0.1276,-0.1402,-0.1401,-0.1565,-0.1588,-0.1646,-0.183,-0.1843,-0.1753,-0.1761,-0.1766,-0.177,0,0,0,0,0,0,0,-0.0773,-0.0547,-0.0957,-0.1065,-0.1078,-0.1283,-0.1288,-0.1293,-0.1405,-0.1404,-0.1402,-0.1401,-0.1688,-0.17,-0.1713,-0.1817,0,0,-0.1752,-0.1758,0,0,0,0,0,0,0,0,-0.0539,-0.0545,-0.0957,-0.0962,-0.0967,-0.1284,-0.1288,-0.1292,-0.1405,-0.1404,-0.1403,-0.1402,-0.1691,-0.1701,-0.1711,0,0,0,0,0,0,0,0,0,0,0,0,0,0,0,-0.0958,-0.0962,0,-0.1284,-0.1288,-0.1291,-0.1404,-0.1404,-0.1403,-0.1402,-0.1694,-0.1702,-0.1711,0,0,0,0,0,0,0,0,0,0,0,0,0,0,0,0,0,0,0,0,0,0,0,0,0,0,0,0,0,0,0,0,0,0,0,0,0,0,0,0,0,0,0,0,0,0,0,0,0,0,0,0,0,0,0,0,0,0,0,0,0,0,0,0,0,0,0,0,0]}]],[[{"header":{"parameterUnit":"kt","parameterCategory":2,"dx":1,"dy":1,"la1":30.253999710083008,"la2":30.299108505249023,"lo1":-89.0895004272461,"lo2":-89.04439544677734,"nx":28,"ny":28,"refTime":"2022-10-30T21:00:00:Z","depth":"2","parameterNumber":2,"parameterNumberName":"U-component_of_CURRENTS"},"data":[0.491,0.4875,0.489,0.4894,0.4932,0.4804,0.4743,0.4531,0.4458,0.4255,0.4164,0.4382,0.4648,0.3913,0.3852,0.3577,0.4002,0.3437,0.5017,0.5094,0.5195,0.5517,0.5086,0,0,0,0,0,0.4955,0.4991,0.5064,0.5209,0.5216,0.5377,0.547,0.5326,0.527,0.5397,0.5335,0.4863,0.4707,0.4874,0.4598,0.4595,0.4597,0.4412,0.4376,0.45,0.4609,0.4239,0.3405,0.3399,0.3393,0.3387,0,0,0.5094,0.511,0.5203,0.5312,0.5509,0.5596,0.5631,0.5784,0.5896,0.59,0.6171,0.6074,0.6194,0.5948,0.5803,0.575,0.6228,0.5966,0.6009,0.6067,0.5772,0.5583,0.5343,0.535,0.5357,0.5363,0.5368,0,0.51,0.5201,0.5336,0.5377,0.5588,0.5825,0.6055,0.6136,0.6436,0.6529,0.6611,0.6705,0.6972,0.6731,0.6809,0.6758,0.6936,0.6715,0.7729,0.6344,0.6169,0.6128,0.6156,0.6088,0.61,0.6109,0.6115,0.612,0.5187,0.5204,0.5425,0.5523,0.5638,0.5923,0.6075,0.6356,0.6429,0.679,0.6837,0.7164,0.7251,0.7517,0.7491,0.7549,0.7736,0.7002,0.6755,0.7499,0.7461,0.7441,0.7422,0.625,0.6233,0.622,0.6209,0,0.5253,0.5343,0.5426,0.5588,0.5706,0.5866,0.6223,0.6322,0.6518,0.6753,0.684,0.7125,0.7374,0.7631,0.7857,0.784,0.789,0.7828,0.7208,0.7101,0.7487,0.7456,0.7664,0.7654,0.7646,0.7639,0.7633,0,0.5343,0.5394,0.5511,0.5568,0.5732,0.5878,0.6111,0.623,0.6438,0.6638,0.6852,0.701,0.7358,0.7589,0.7635,0.7733,0.7966,0.7601,0.7579,0.7076,0.6999,0.7642,0.7599,0.7987,0.7984,0.7982,0.798,0,0.5371,0.5465,0.5521,0.5589,0.574,0.5864,0.6,0.6212,0.64,0.6638,0.6776,0.7064,0.7265,0.7429,0.7544,0.7506,0.7839,0.7778,0.754,0.7518,0.6992,0.6908,0.7977,0.7977,0.7976,0.7975,0.7974,0,0.5458,0.5468,0.5543,0.5675,0.5692,0.581,0.5967,0.617,0.6439,0.6598,0.6853,0.6999,0.7165,0.7145,0.7431,0.7339,0.737,0.7395,0.7407,0.6984,0.6852,0.6577,0.6701,0.7488,0.7483,0.7479,0.7475,0,0.5464,0.5502,0.5544,0.5645,0.564,0.5761,0.5906,0.6109,0.6299,0.6548,0.6739,0.6919,0.6953,0.6962,0.7065,0.7055,0.715,0.6973,0.7135,0.7139,0.6818,0.7047,0.6468,0.6664,0.7418,0.7424,0.7429,0,0.5439,0.5484,0.5476,0.5561,0.5626,0.5666,0.5821,0.5984,0.6082,0.6475,0.668,0.6813,0.6899,0.6852,0.677,0.681,0.705,0.6732,0.6731,0.6866,0.7362,0.7012,0.7017,0.7061,0.7067,0.7072,0.7384,0,0.5462,0.5487,0.5451,0.5547,0.5596,0.5611,0.5724,0.5895,0.6049,0.6188,0.6504,0.6533,0.6607,0.6642,0.6485,0.6627,0.6622,0.6553,0.6375,0.6568,0.6673,0.671,0.6197,0.6192,0.6188,0.6184,0,0,0.5437,0.5448,0.5458,0.5494,0.5506,0.5523,0.5564,0.5645,0.58,0.5914,0.601,0.6217,0.6193,0.6211,0.6248,0.6253,0.6318,0.6173,0.6449,0.6479,0.6507,0.6619,0.666,0.6176,0.6174,0.6173,0.6171,0,0.5406,0.5425,0.5444,0.5509,0.5519,0.5468,0.5526,0.5543,0.5648,0.5862,0.5802,0.5924,0.6067,0.6007,0.5971,0.6179,0.6177,0.6235,0.6286,0.6408,0.6444,0.6476,0.6594,0.6634,0.616,0.6161,0.6161,0,0.5441,0.5416,0.5446,0.5466,0.5415,0.5426,0.5368,0.5347,0.5457,0.5364,0.5573,0.5632,0.5564,0.5701,0.578,0.5656,0.5962,0.584,0.5862,0.5838,0.5955,0.5996,0.6033,0.5564,0.5563,0.5562,0,0,0.5438,0.5469,0.5455,0.5454,0.5432,0.5377,0.5344,0.5349,0.5324,0.5338,0.5437,0.545,0.5496,0.5522,0.5606,0.568,0.5679,0.5777,0.5805,0.5829,0.582,0.5941,0.598,0.5558,0.5558,0.5558,0,0,0.5395,0.5365,0.5442,0.5381,0.5441,0.5269,0.5207,0.523,0.5265,0.5245,0.5234,0.5253,0.548,0.5398,0.5345,0.5554,0.5424,0.5436,0.5619,0.5653,0.568,0.5661,0.5267,0,0,0,0,0,0.5429,0.5378,0.5452,0.5436,0.5301,0.5273,0.5248,0.5163,0.5116,0.5201,0.5192,0.5178,0.5349,0.5301,0.5315,0.5463,0.5506,0.5515,0.5524,0.5787,0.5823,0.5854,0,0,0,0,0,0,0.5422,0.5409,0.5447,0.5281,0.5245,0.5267,0.5128,0.5104,0.5113,0.5116,0.5158,0.5173,0.5134,0.5293,0.5306,0.5449,0.5263,0.5509,0.5517,0.5524,0.58,0.5829,0.5855,0,0,0,0,0,0.5415,0.5404,0.5249,0.5274,0.5245,0.5117,0.5133,0.5113,0.5154,0.5091,0.5103,0.5113,0.513,0.5151,0.53,0.5445,0.5254,0.5259,0.5514,0.5521,0.5526,0.5814,0,0,0,0,0,0,0.5409,0.536,0.5237,0.5218,0.5316,0.5121,0.5105,0.5121,0.5135,0.5135,0.5038,0.504,0.5126,0.5143,0.5158,0.5447,0.5246,0.5251,0.5254,0.5519,0.5524,0.5528,0,0,0,0,0,0,0.5363,0.5347,0.5227,0.5285,0.5272,0.5125,0.5111,0.5154,0.5147,0.5088,0.5083,0.5041,0.5204,0.5137,0.515,0.5206,0.5241,0.5245,0.5249,0.5251,0.5523,0.5527,0,0,0,0,0,0,0.5351,0.5337,0.529,0.528,0.5269,0.5052,0.517,0.5106,0.4986,0.5097,0.4995,0.5,0.5205,0.5211,0.5143,0.5193,0.5203,0.5241,0.5244,0.5246,0.5248,0,0,0,0,0,0,0,0.5342,0.55,0.5345,0.5276,0.5266,0.504,0.5035,0.503,0.4987,0.4991,0.4994,0.4998,0.5213,0.5219,0.5224,0.5183,0,0,0.524,0.5243,0,0,0,0,0,0,0,0,0.55,0.55,0.5345,0.534,0.5336,0.5039,0.5035,0.5031,0.4988,0.4991,0.4994,0.4996,0.5215,0.5219,0.5223,0,0,0,0,0,0,0,0,0,0,0,0,0,0,0,0.5344,0.5341,0,0.5038,0.5035,0.5032,0.4988,0.4991,0.4993,0.4995,0.5216,0.5219,0.5223,0,0,0,0,0,0,0,0,0,0,0,0,0,0,0,0,0,0,0,0,0,0,0,0,0,0,0,0,0,0,0,0,0,0,0,0,0,0,0,0,0,0,0,0,0,0,0,0,0,0,0,0,0,0,0,0,0,0,0,0,0,0,0,0,0,0,0,0,0]}],[{"header":{"parameterUnit":"kt","parameterCategory":2,"dx":1,"dy":1,"la1":30.253999710083008,"la2":30.299108505249023,"lo1":-89.0895004272461,"lo2":-89.04439544677734,"nx":28,"ny":28,"refTime":"2022-10-30T21:00:00:Z","depth":"2","parameterNumber":3,"parameterNumberName":"V-component_of_CURRENTS"},"data":[0.159,0.1845,0.1984,0.2389,0.2615,0.2908,0.3104,0.3279,0.3369,0.3339,0.3186,0.3006,0.235,0.1656,0.0974,0.0462,0.0388,0.0339,0.0487,0.0708,0.0728,0.0284,0.0355,0,0,0,0,0,0.1514,0.1681,0.1971,0.2294,0.2552,0.2683,0.3062,0.3189,0.3404,0.3462,0.342,0.2819,0.2252,0.1621,0.0698,0.0172,0.0149,-0.0019,0.0087,0.0104,0.0118,0.0149,-0.0043,-0.0045,-0.0046,-0.0047,0,0,0.1395,0.1539,0.1777,0.2075,0.2337,0.2638,0.2824,0.3074,0.3295,0.3398,0.335,0.3157,0.2614,0.1611,0.103,0.0403,0.0437,0.019,0.02,0.0211,0.0242,0.025,0.0078,0.0078,0.0078,0.0078,0.0078,0,0.1296,0.1369,0.1566,0.1884,0.2117,0.2364,0.262,0.2787,0.2947,0.3059,0.3157,0.3072,0.2512,0.1947,0.1213,0.0837,0.0519,0.0393,0.0501,0.0469,0.0483,0.0435,0.0447,0.035,0.0352,0.0353,0.0353,0.0354,0.1145,0.1279,0.156,0.1721,0.1841,0.2057,0.2248,0.2384,0.2578,0.2695,0.2806,0.2626,0.252,0.1893,0.1337,0.078,0.074,0.0445,0.0391,0.0488,0.0434,0.0446,0.0456,0.0369,0.0367,0.0366,0.0364,0,0.1074,0.1182,0.1425,0.1659,0.1741,0.1893,0.2117,0.2305,0.237,0.2551,0.2567,0.2482,0.2213,0.1814,0.1438,0.1098,0.0771,0.0643,0.0691,0.0632,0.0471,0.0477,0.0361,0.0357,0.0354,0.0351,0.0349,0,0.0996,0.1155,0.1339,0.146,0.1686,0.1759,0.1976,0.2064,0.2176,0.2325,0.2199,0.2248,0.1858,0.1652,0.134,0.0961,0.1011,0.0697,0.0631,0.0663,0.0657,0.0716,0.0713,0.0753,0.0754,0.0755,0.0756,0,0.0869,0.1106,0.1279,0.135,0.1567,0.1642,0.1734,0.184,0.1918,0.1985,0.2055,0.1893,0.1824,0.1566,0.1251,0.1218,0.0975,0.0906,0.0677,0.0668,0.0616,0.0603,0.0758,0.0758,0.0758,0.0759,0.0759,0,0.0798,0.0949,0.115,0.1366,0.1409,0.1517,0.1677,0.1735,0.1781,0.1776,0.1733,0.1647,0.1558,0.1413,0.116,0.119,0.1029,0.0916,0.0907,0.0785,0.0694,0.0544,0.0608,0.0755,0.0756,0.0757,0.0758,0,0.0679,0.0897,0.0938,0.1146,0.1266,0.1262,0.1346,0.1382,0.1395,0.1436,0.1319,0.1369,0.119,0.1219,0.1136,0.1024,0.0972,0.1025,0.0788,0.0781,0.0663,0.0744,0.0764,0.0625,0.0768,0.0767,0.0766,0,0.0576,0.0748,0.077,0.086,0.0943,0.1008,0.1072,0.1125,0.1213,0.1103,0.1161,0.1161,0.1071,0.1096,0.1042,0.1012,0.0981,0.0919,0.0913,0.081,0.0843,0.0765,0.075,0.0929,0.0929,0.0929,0.0775,0,0.0572,0.0646,0.0704,0.0788,0.0827,0.0902,0.0894,0.0896,0.0855,0.0839,0.0849,0.0793,0.0818,0.0839,0.0827,0.0885,0.0818,0.0777,0.0692,0.0802,0.0723,0.0717,0.075,0.0747,0.0745,0.0743,0,0,0.0443,0.052,0.0492,0.0582,0.0626,0.0576,0.0659,0.0653,0.0621,0.0617,0.0549,0.0584,0.0565,0.0671,0.0725,0.0718,0.0654,0.0704,0.0776,0.0781,0.0784,0.0713,0.071,0.074,0.0739,0.0738,0.0738,0,0.0434,0.0414,0.047,0.0495,0.0523,0.0535,0.0544,0.053,0.0495,0.0522,0.0468,0.0475,0.0496,0.0514,0.0543,0.0679,0.0564,0.0701,0.081,0.076,0.0767,0.0773,0.0705,0.0704,0.0732,0.0733,0.0733,0,0.0345,0.0367,0.0365,0.039,0.0392,0.0461,0.0371,0.0414,0.0448,0.0346,0.0357,0.0327,0.0345,0.0405,0.0423,0.0395,0.0477,0.0484,0.0497,0.0491,0.0433,0.0444,0.0453,0.0313,0.0311,0.031,0,0,0.0336,0.036,0.0348,0.0379,0.039,0.0368,0.0384,0.0368,0.0363,0.0355,0.0296,0.029,0.0319,0.0324,0.0318,0.0376,0.0306,0.0433,0.0453,0.0469,0.0472,0.042,0.0432,0.0305,0.0304,0.0304,0,0,0.0327,0.0327,0.0278,0.0327,0.0322,0.0333,0.0372,0.0338,0.0328,0.0323,0.0254,0.0241,0.0267,0.0252,0.0188,0.0317,0.0238,0.0249,0.0318,0.0342,0.0361,0.036,0.0107,0,0,0,0,0,0.0273,0.0329,0.0283,0.0288,0.0303,0.0343,0.0347,0.033,0.0296,0.0311,0.0279,0.0219,0.0231,0.0172,0.0164,0.0232,0.0236,0.0248,0.026,0.036,0.0386,0.0408,0,0,0,0,0,0,0.0275,0.0278,0.0284,0.0294,0.0299,0.0341,0.029,0.0286,0.0293,0.0286,0.0231,0.0218,0.0177,0.0171,0.0165,0.0232,0.0109,0.0241,0.0251,0.026,0.0369,0.0391,0.0409,0,0,0,0,0,0.0277,0.0279,0.0299,0.0294,0.0298,0.0292,0.0287,0.0283,0.0278,0.0237,0.0224,0.0264,0.018,0.017,0.0167,0.0238,0.0113,0.0111,0.0248,0.0256,0.0263,0.038,0,0,0,0,0,0,0.0278,0.0273,0.0301,0.0303,0.027,0.0288,0.0286,0.0281,0.0226,0.0218,0.0267,0.0261,0.0183,0.0174,0.0166,0.0245,0.0116,0.0114,0.0112,0.0254,0.026,0.0266,0,0,0,0,0,0,0.0273,0.0275,0.0302,0.0272,0.0271,0.0286,0.0284,0.027,0.0222,0.0255,0.0252,0.0264,0.0171,0.0177,0.0171,0.0153,0.0118,0.0116,0.0115,0.0114,0.0259,0.0264,0,0,0,0,0,0,0.0274,0.0276,0.0271,0.027,0.0268,0.0289,0.027,0.0267,0.0258,0.0255,0.0251,0.0248,0.0174,0.0168,0.0175,0.016,0.0155,0.0118,0.0117,0.0116,0.0115,0,0,0,0,0,0,0,0.0275,0.0258,0.0293,0.0268,0.0266,0.0327,0.0327,0.0327,0.0257,0.0254,0.0252,0.0249,0.013,0.0128,0.0126,0.0166,0,0,0.0119,0.0117,0,0,0,0,0,0,0,0,0.0258,0.0258,0.0294,0.0295,0.0295,0.0327,0.0327,0.0327,0.0257,0.0255,0.0252,0.025,0.013,0.0128,0.0126,0,0,0,0,0,0,0,0,0,0,0,0,0,0,0,0.0294,0.0294,0,0.0327,0.0327,0.0327,0.0256,0.0255,0.0253,0.0251,0.0129,0.0128,0.0126,0,0,0,0,0,0,0,0,0,0,0,0,0,0,0,0,0,0,0,0,0,0,0,0,0,0,0,0,0,0,0,0,0,0,0,0,0,0,0,0,0,0,0,0,0,0,0,0,0,0,0,0,0,0,0,0,0,0,0,0,0,0,0,0,0,0,0,0,0]}]],[[{"header":{"parameterUnit":"kt","parameterCategory":2,"dx":1,"dy":1,"la1":30.253999710083008,"la2":30.299108505249023,"lo1":-89.0895004272461,"lo2":-89.04439544677734,"nx":28,"ny":28,"refTime":"2022-10-30T21:00:00:Z","depth":"4","parameterNumber":2,"parameterNumberName":"U-component_of_CURRENTS"},"data":[0.1956,0.1952,0.1914,0.1864,0.1874,0.1956,0.2057,0.2275,0.2328,0.2727,0.2842,0.3172,0.3389,0.3612,0.3647,0.3695,0.3626,0.4141,0.4131,0.4177,0.4203,0.4225,0.4018,0,0,0,0,0,0.204,0.1974,0.1992,0.1992,0.2106,0.2177,0.2353,0.248,0.2834,0.293,0.318,0.3375,0.3579,0.3741,0.3694,0.3986,0.4112,0.3906,0.3922,0.4193,0.4221,0.401,0,0,0,0,0,0,0.2146,0.2099,0.2155,0.2192,0.2295,0.2319,0.241,0.2594,0.2797,0.3343,0.3396,0.3776,0.4085,0.411,0.4199,0.4226,0.4135,0.3963,0.4001,0.403,0.3824,0.36,0.3541,0,0,0,0,0,0.2227,0.229,0.2293,0.2362,0.2443,0.2505,0.2677,0.2779,0.3152,0.3491,0.3739,0.3891,0.4132,0.4254,0.4368,0.439,0.4572,0.4511,0.4523,0.4345,0.4215,0.4205,0.42,0.4329,0.4332,0.4334,0.4336,0,0.2366,0.2364,0.2449,0.2479,0.2526,0.2662,0.277,0.3062,0.321,0.3704,0.3802,0.416,0.4329,0.4429,0.4598,0.4672,0.4609,0.4586,0.4398,0.4258,0.4245,0.4231,0.4217,0.4359,0.4357,0.4355,0.4353,0,0.2437,0.2488,0.2488,0.2599,0.265,0.2717,0.2959,0.3095,0.3413,0.3678,0.3791,0.4131,0.4351,0.4531,0.4751,0.4638,0.4687,0.4635,0.4782,0.4785,0.4272,0.4248,0.4396,0.4388,0.4381,0.4375,0.437,0,0.2531,0.2543,0.2619,0.2607,0.269,0.2791,0.2963,0.3102,0.34,0.3586,0.3807,0.3982,0.4238,0.4429,0.4479,0.4525,0.4743,0.44,0.4399,0.455,0.4527,0.4504,0.4472,0.4759,0.4758,0.4756,0.4755,0,0.2606,0.2605,0.2626,0.2622,0.2695,0.2788,0.2882,0.3104,0.3256,0.3532,0.3686,0.3933,0.4137,0.4257,0.44,0.4345,0.4647,0.4594,0.4378,0.4358,0.4484,0.4455,0.4754,0.4754,0.4753,0.4753,0.4752,0,0.2639,0.2622,0.2634,0.2671,0.2674,0.2739,0.2918,0.303,0.3274,0.3389,0.3596,0.3696,0.3965,0.3911,0.4212,0.4137,0.4209,0.426,0.4269,0.3947,0.3871,0.4045,0.4319,0.4315,0.4312,0.4308,0.4305,0,0.2685,0.2646,0.264,0.2659,0.2623,0.2686,0.2806,0.2925,0.3041,0.3198,0.3369,0.3544,0.3553,0.3684,0.3822,0.3956,0.4074,0.3942,0.4104,0.4107,0.3812,0.4001,0.4076,0.4255,0.4262,0.4266,0.427,0,0.268,0.2615,0.2617,0.2619,0.2622,0.2595,0.273,0.2809,0.2941,0.302,0.3192,0.3392,0.3458,0.3548,0.3646,0.3771,0.3994,0.3761,0.3764,0.3797,0.4261,0.3974,0.3976,0.4047,0.4053,0.4058,0.4235,0,0.2642,0.2635,0.2605,0.2606,0.2596,0.2569,0.2606,0.2663,0.2747,0.2804,0.2996,0.3094,0.3258,0.3328,0.3375,0.3614,0.358,0.357,0.3505,0.368,0.3731,0.3759,0.3379,0.3376,0.3373,0.3371,0,0,0.2671,0.2623,0.2576,0.2548,0.254,0.2535,0.2537,0.2574,0.2603,0.2677,0.2684,0.2913,0.298,0.3217,0.3311,0.3318,0.3361,0.331,0.3589,0.3614,0.3636,0.3694,0.3724,0.3366,0.3365,0.3364,0.3363,0,0.2618,0.2596,0.2594,0.255,0.252,0.2506,0.2515,0.2477,0.2538,0.2615,0.2701,0.2833,0.2906,0.303,0.3106,0.3266,0.325,0.3307,0.3425,0.3562,0.359,0.3615,0.3678,0.3707,0.3356,0.3357,0.3357,0,0.2614,0.2583,0.2589,0.2516,0.2488,0.2471,0.246,0.2446,0.2509,0.2517,0.2625,0.2681,0.2771,0.2899,0.2958,0.2932,0.3162,0.307,0.3086,0.305,0.3184,0.3217,0.3247,0.2862,0.286,0.2859,0,0,0.2597,0.2589,0.2523,0.2506,0.2476,0.2457,0.2442,0.2467,0.2486,0.2516,0.2549,0.2643,0.2738,0.2802,0.2829,0.292,0.2923,0.3012,0.3035,0.3054,0.3031,0.3168,0.32,0.2853,0.2853,0.2853,0,0,0.2583,0.2537,0.2567,0.2528,0.2484,0.2414,0.2406,0.2432,0.2485,0.2552,0.2577,0.2594,0.271,0.271,0.2637,0.2858,0.2762,0.2774,0.2871,0.2899,0.2922,0.2887,0.2609,0,0,0,0,0,0.2561,0.2532,0.256,0.2551,0.2488,0.2396,0.2388,0.2414,0.2485,0.2471,0.257,0.2554,0.2716,0.265,0.2647,0.2762,0.2781,0.2794,0.2806,0.2947,0.2978,0.3004,0,0,0,0,0,0,0.2557,0.2543,0.256,0.2489,0.2475,0.2398,0.246,0.2464,0.2487,0.25,0.254,0.2551,0.2561,0.2648,0.2646,0.2758,0.261,0.2786,0.2797,0.2807,0.2958,0.2983,0.3004,0,0,0,0,0,0.2553,0.2542,0.2446,0.2489,0.2477,0.2489,0.2465,0.2469,0.2503,0.2505,0.252,0.2535,0.2556,0.2562,0.2647,0.2762,0.2611,0.261,0.2793,0.2802,0.2809,0.297,0,0,0,0,0,0,0.2551,0.2537,0.2444,0.244,0.2538,0.2496,0.2494,0.2473,0.251,0.252,0.2497,0.2506,0.2552,0.2557,0.2561,0.2769,0.2612,0.2611,0.2611,0.28,0.2806,0.2812,0,0,0,0,0,0,0.2543,0.2533,0.2441,0.2502,0.2505,0.2502,0.25,0.2478,0.2513,0.2501,0.2509,0.2502,0.2582,0.2553,0.2557,0.2517,0.2613,0.2612,0.2612,0.2611,0.2805,0.281,0,0,0,0,0,0,0.2539,0.253,0.2503,0.2505,0.2509,0.2466,0.2487,0.2445,0.2496,0.2501,0.251,0.2516,0.2578,0.2581,0.2553,0.251,0.2515,0.2613,0.2612,0.2612,0.2612,0,0,0,0,0,0,0,0.2535,0.2592,0.2468,0.2508,0.2511,0.2404,0.2403,0.2402,0.2498,0.2503,0.2508,0.2513,0.2616,0.2615,0.2615,0.2505,0,0,0.2613,0.2612,0,0,0,0,0,0,0,0,0.2595,0.2593,0.2468,0.2467,0.2467,0.2404,0.2403,0.2402,0.2499,0.2503,0.2507,0.2511,0.2616,0.2615,0.2615,0,0,0,0,0,0,0,0,0,0,0,0,0,0,0,0.2468,0.2467,0,0.2404,0.2403,0.2402,0.2499,0.2503,0.2506,0.2509,0.2616,0.2615,0.2615,0,0,0,0,0,0,0,0,0,0,0,0,0,0,0,0,0,0,0,0,0,0,0,0,0,0,0,0,0,0,0,0,0,0,0,0,0,0,0,0,0,0,0,0,0,0,0,0,0,0,0,0,0,0,0,0,0,0,0,0,0,0,0,0,0,0,0,0,0]}],[{"header":{"parameterUnit":"kt","parameterCategory":2,"dx":1,"dy":1,"la1":30.253999710083008,"la2":30.299108505249023,"lo1":-89.0895004272461,"lo2":-89.04439544677734,"nx":28,"ny":28,"refTime":"2022-10-30T21:00:00:Z","depth":"4","parameterNumber":3,"parameterNumberName":"V-component_of_CURRENTS"},"data":[0.0998,0.1169,0.1276,0.152,0.1667,0.191,0.2059,0.2136,0.2107,0.2129,0.1871,0.1767,0.1286,0.1577,0.0808,0.0712,0.0574,0.0112,0.0103,-0.0052,-0.0041,-0.003,0.006,0,0,0,0,0,0.0983,0.1096,0.128,0.1495,0.1696,0.1839,0.2061,0.2157,0.2256,0.2197,0.2178,0.19,0.1397,0.1181,0.0838,0.0748,0.0342,0.0331,0.0206,-0.0045,-0.0032,0.0052,0,0,0,0,0,0,0.0968,0.1045,0.1229,0.1434,0.1644,0.1834,0.1947,0.207,0.2173,0.219,0.2136,0.1839,0.1673,0.1161,0.082,0.0489,0.0406,0.029,0.0284,0.0293,0.0406,0.0496,0.037,0,0,0,0,0,0.0944,0.102,0.1148,0.1375,0.1555,0.1748,0.1949,0.203,0.2148,0.2179,0.2083,0.1823,0.1535,0.1135,0.077,0.0436,0.0249,0.0113,0.0118,0.014,0.0181,0.0149,0.0168,0.0016,0.0018,0.0019,0.0019,0,0.091,0.0997,0.1206,0.1312,0.141,0.1599,0.1744,0.1865,0.1961,0.1988,0.2017,0.1826,0.1684,0.1158,0.084,0.0376,0.0302,0.0148,0.0173,0.0203,0.0164,0.0181,0.0197,0.003,0.0029,0.0028,0.0027,0,0.0888,0.0983,0.1135,0.13,0.1375,0.1482,0.1691,0.1787,0.1825,0.1906,0.1912,0.1776,0.1529,0.1242,0.0897,0.0688,0.0397,0.0278,0.0475,0.0432,0.0208,0.022,0.0047,0.0043,0.004,0.0037,0.0035,0,0.0864,0.097,0.1116,0.1193,0.1345,0.1414,0.1559,0.1593,0.1659,0.1723,0.162,0.1606,0.1356,0.1173,0.0941,0.064,0.0663,0.042,0.0362,0.0527,0.0537,0.0477,0.0483,0.0447,0.0449,0.045,0.0451,0,0.0792,0.0957,0.1078,0.113,0.1268,0.1343,0.1411,0.1447,0.1515,0.1502,0.1524,0.1392,0.1352,0.115,0.0912,0.0921,0.0649,0.0627,0.0422,0.0415,0.0487,0.049,0.0453,0.0453,0.0453,0.0454,0.0454,0,0.0769,0.0857,0.1003,0.1138,0.1169,0.1249,0.1331,0.1393,0.1396,0.1395,0.1354,0.1287,0.1203,0.1134,0.0915,0.0974,0.0829,0.0712,0.0702,0.0606,0.0552,0.0572,0.0569,0.0571,0.0573,0.0574,0.0576,0,0.0683,0.0825,0.0866,0.1003,0.1078,0.1098,0.1163,0.1195,0.12,0.1228,0.1143,0.1148,0.1072,0.1069,0.099,0.0865,0.0788,0.0865,0.0644,0.0638,0.058,0.0558,0.0776,0.0599,0.0596,0.0594,0.0593,0,0.0607,0.0736,0.0752,0.0824,0.0889,0.0927,0.0993,0.1038,0.1077,0.1078,0.1109,0.1065,0.1017,0.1001,0.0948,0.0883,0.0815,0.0838,0.0832,0.0769,0.0656,0.0594,0.0573,0.0784,0.0782,0.0781,0.0609,0,0.0607,0.0674,0.0701,0.0778,0.0811,0.0864,0.0886,0.0927,0.0935,0.0935,0.0945,0.0902,0.0894,0.0877,0.0853,0.0829,0.08,0.077,0.0741,0.0762,0.0683,0.0671,0.0794,0.0792,0.0791,0.079,0,0,0.0523,0.0593,0.0589,0.0653,0.0688,0.0673,0.0739,0.0755,0.0794,0.0806,0.0798,0.0789,0.0771,0.0769,0.0782,0.0775,0.0728,0.0801,0.0762,0.0759,0.0756,0.0683,0.0672,0.0787,0.0787,0.0786,0.0786,0,0.0514,0.0525,0.0571,0.0605,0.0642,0.0646,0.0665,0.0688,0.0703,0.076,0.0717,0.0706,0.075,0.0719,0.071,0.0759,0.0705,0.0769,0.0828,0.0753,0.0752,0.0751,0.0679,0.0671,0.0783,0.0783,0.0783,0,0.0475,0.0494,0.0509,0.0549,0.0557,0.0605,0.0565,0.0598,0.0643,0.0599,0.0665,0.064,0.0621,0.0655,0.0671,0.0661,0.0674,0.0704,0.071,0.0714,0.0634,0.0634,0.0634,0.0631,0.063,0.063,0,0,0.0469,0.0498,0.0515,0.0543,0.0555,0.0558,0.0572,0.0578,0.0587,0.0596,0.0609,0.0609,0.0607,0.0627,0.0628,0.0673,0.0616,0.0689,0.0696,0.0702,0.0709,0.0632,0.0632,0.063,0.063,0.063,0,0,0.0453,0.0474,0.0478,0.0511,0.0534,0.053,0.055,0.0551,0.0572,0.0572,0.0559,0.0563,0.0599,0.0593,0.0585,0.0627,0.0592,0.0595,0.065,0.0658,0.0665,0.0672,0.0555,0,0,0,0,0,0.0443,0.0472,0.0476,0.0482,0.0505,0.0531,0.0534,0.0533,0.052,0.0548,0.0547,0.0536,0.0577,0.057,0.0576,0.0607,0.0621,0.0622,0.0624,0.0703,0.0712,0.072,0,0,0,0,0,0,0.0445,0.0452,0.0475,0.0472,0.0477,0.0529,0.0494,0.0494,0.0518,0.0518,0.0533,0.0535,0.0525,0.0567,0.0572,0.0602,0.0553,0.0621,0.0623,0.0624,0.0706,0.0713,0.072,0,0,0,0,0,0.0447,0.0452,0.0491,0.0471,0.0476,0.0481,0.0494,0.0494,0.0516,0.0512,0.0514,0.0518,0.0525,0.053,0.057,0.06,0.055,0.0552,0.0622,0.0623,0.0624,0.0709,0,0,0,0,0,0,0.0448,0.0449,0.0492,0.0493,0.0466,0.0479,0.0482,0.0493,0.0509,0.0511,0.0494,0.0493,0.0525,0.0529,0.0533,0.06,0.0547,0.0549,0.055,0.0623,0.0624,0.0624,0,0,0,0,0,0,0.0446,0.045,0.0492,0.0486,0.0486,0.0477,0.048,0.0503,0.051,0.049,0.049,0.0493,0.0525,0.0528,0.0532,0.0566,0.0544,0.0546,0.0548,0.0549,0.0624,0.0624,0,0,0,0,0,0,0.0447,0.0451,0.0485,0.0486,0.0486,0.0497,0.0498,0.0525,0.0494,0.049,0.0493,0.0492,0.0525,0.0528,0.0531,0.0564,0.0566,0.0544,0.0546,0.0547,0.0547,0,0,0,0,0,0,0,0.0449,0.0429,0.0487,0.0486,0.0486,0.0503,0.0504,0.0504,0.0494,0.0493,0.0493,0.0492,0.0533,0.0536,0.0538,0.0562,0,0,0.0544,0.0545,0,0,0,0,0,0,0,0,0.0428,0.0429,0.0487,0.0487,0.0488,0.0503,0.0504,0.0504,0.0494,0.0493,0.0493,0.0493,0.0534,0.0536,0.0537,0,0,0,0,0,0,0,0,0,0,0,0,0,0,0,0.0487,0.0487,0,0.0503,0.0504,0.0504,0.0494,0.0493,0.0493,0.0493,0.0534,0.0536,0.0537,0,0,0,0,0,0,0,0,0,0,0,0,0,0,0,0,0,0,0,0,0,0,0,0,0,0,0,0,0,0,0,0,0,0,0,0,0,0,0,0,0,0,0,0,0,0,0,0,0,0,0,0,0,0,0,0,0,0,0,0,0,0,0,0,0,0,0,0,0]}]]]